Погода Муледена 2 недели

Нижняя Калифорния, Мексика

24 июня-06 июля
  • 24июня
    Сегодня
    +26°
    +37°
    Ясно и безоблачно
    ВремяПогодаТемператураВлажностьДавлениеВетер, м/сВероятность осадков
    02:00Ясно и безоблачно+29°C49 %754 мм1.5 м/с2 %
    05:00Практически безоблачно+27°C52 %753 мм1.9 м/с2 %
    08:00Ясно и безоблачно+31°C47 %754 мм1.0 м/с2 %
    11:00Ясно и безоблачно+34°C45 %754 мм4.2 м/с2 %
    14:00Ясно и безоблачно+36°C40 %752 мм4.3 м/с2 %
    17:00Ясно и безоблачно+36°C40 %751 мм1.6 м/с2 %
    20:00Ясно и безоблачно+34°C49 %753 мм0.1 м/с2 %
    23:00Небольшая облачность+30°C46 %754 мм3.4 м/с2 %
  • 25июня
    Вторник
    +27°
    +37°
    Небольшая облачность
    ВремяПогодаТемператураВлажностьДавлениеВетер, м/сВероятность осадков
    02:00Облачно с прояснениями+28°C49 %752 мм3.0 м/с2 %
    05:00Ясно и безоблачно+27°C46 %752 мм2.9 м/с2 %
    08:00Ясно и безоблачно+31°C33 %754 мм1.7 м/с1 %
    11:00Ясно и безоблачно+34°C35 %754 мм4.4 м/с2 %
    14:00Небольшая облачность+36°C36 %752 мм5.3 м/с2 %
    17:00Облачно с прояснениями+36°C38 %751 мм4.5 м/с2 %
    20:00Облачно с прояснениями+33°C46 %752 мм1.7 м/с2 %
    23:00Небольшая облачность+32°C38 %753 мм2.0 м/с2 %
  • 26июня
    Среда
    +27°
    +36°
    Ясно и безоблачно
    ВремяПогодаТемператураВлажностьДавлениеВетер, м/сВероятность осадков
    02:00Облачно с прояснениями+30°C34 %753 мм2.3 м/с2 %
    05:00Облачно с прояснениями+28°C31 %753 мм1.9 м/с2 %
    08:00Ясно и безоблачно+31°C25 %754 мм1.2 м/с2 %
    11:00Ясно и безоблачно+33°C40 %754 мм4.9 м/с2 %
    14:00Ясно и безоблачно+35°C36 %752 мм4.4 м/с2 %
    17:00Ясно и безоблачно+36°C36 %751 мм4.1 м/с2 %
    20:00Ясно и безоблачно+33°C45 %752 мм1.2 м/с2 %
    23:00Практически безоблачно+33°C43 %753 мм1.4 м/с2 %
  • 27июня
    Четверг
    +27°
    +36°
    Ясно и безоблачно
    ВремяПогодаТемператураВлажностьДавлениеВетер, м/сВероятность осадков
    02:00Ясно и безоблачно+30°C50 %752 мм0.7 м/с2 %
    05:00Небольшая облачность+28°C50 %752 мм0.7 м/с2 %
    08:00Ясно и безоблачно+30°C49 %753 мм0.9 м/с2 %
    11:00Ясно и безоблачно+32°C51 %752 мм4.6 м/с2 %
    14:00Ясно и безоблачно+34°C44 %750 мм4.6 м/с2 %
    17:00Ясно и безоблачно+35°C40 %749 мм3.7 м/с2 %
    20:00Ясно и безоблачно+33°C47 %750 мм1.4 м/с2 %
    23:00Облачно с прояснениями+32°C38 %751 мм2.1 м/с2 %
Мы используем cookies
Соглашаюсь